Dewpoint
55 51 47 46 47 45 42 39 32 35 35 31 29 29 28 30 32 32 33 34 35 35 33 38 47 44 42 38 34 31 29 29 29 32 36 32 33 30 31 31 30 34 38 41 45 46 45 51 57 61 63 64 66 68 68 68 67 67 68 69 68 69 70 70 70 70 70 70 70 69 69 69 69 69 69 69 69 69 69 67 67 66 66 66 66 66 66 65 64 64 64 63 63 63 63 62 62
48 44 47 47 44 45 38 38 34 32 33 29 28 28 28 28 30 31 31 31 31 32 32 38 46 44 41 39 37 38 30 28 28 29 32 34 27 29 28 28 28 33 39 40 44 44 45 46 56 60 62 63 65 66 67 67 68 68 68 68 67 68 69 68 69 70 69 69 69 69 69 69 69 69 69 69 69 69 68 67 67 68 66 66 66 66 66 65 64 64 64 64 63 63 63 63 62
43 42 42 42 36 38 35 36 31 32 31 28 27 26 27 27 28 29 29 30 31 30 37 42 43 42 44 42 34 40 38 33 26 27 28 29 24 25 27 27 29 34 38 39 40 42 43 46 55 59 61 62 64 65 66 66 67 67 67 68 68 68 67 67 68 69 69 69 69 69 69 70 69 69 69 70 69 69 68 67 67 67 67 67 66 66 66 65 64 64 64 63 63 63 62 62 61
47 42 45 40 36 36 35 33 34 31 30 29 27 26 25 26 26 27 29 31 31 29 38 46 44 40 40 36 32 30 27 29 27 25 24 23 24 25 25 26 33 33 37 40 38 39 42 47 54 58 59 61 63 64 64 65 66 67 67 67 67 68 67 68 68 69 68 68 69 69 69 69 70 70 70 70 69 68 68 68 68 68 67 68 65 66 66 65 65 64 64 64 63 63 62 61 61
39 40 41 39 38 34 35 31 29 31 28 28 26 24 24 25 25 27 29 31 31 27 34 43 43 40 34 34 32 28 26 26 25 25 21 23 24 25 25 27 31 33 37 36 36 37 39 48 54 56 58 60 61 63 63 64 65 66 66 67 67 67 67 67 67 68 68 67 68 69 69 69 68 69 68 68 68 68 68 68 69 68 68 68 66 66 65 65 65 64 64 63 63 62 61 61 62
39 35 37 35 31 32 31 29 27 24 24 24 24 23 24 24 23 25 29 30 29 25 29 36 39 37 33 29 28 27 28 25 24 24 22 22 25 25 24 30 29 32 36 36 37 37 39 48 53 55 57 59 60 61 62 63 64 65 65 66 66 67 67 67 67 68 67 67 68 67 68 67 67 67 68 68 68 69 69 69 68 69 68 68 66 66 66 65 65 64 63 62 62 62 61 61 62
40 38 35 33 32 31 30 27 24 23 22 22 22 23 24 24 23 24 25 29 23 26 26 30 35 39 36 32 30 28 27 25 24 24 24 23 24 25 25 26 29 33 35 36 36 37 41 48 51 54 56 57 59 60 61 62 63 63 64 65 65 66 67 68 67 67 67 68 67 68 68 68 67 67 67 67 68 68 69 69 68 68 68 68 66 66 66 65 65 64 64 63 62 62 62 62 63
44 40 35 31 31 29 27 25 23 23 22 23 23 24 24 23 23 20 19 26 23 21 23 29 36 42 40 42 36 30 31 27 23 22 22 17 23 26 27 25 29 31 34 35 36 37 44 47 50 53 54 56 57 58 59 60 61 62 63 64 65 65 66 67 68 67 68 67 68 67 67 67 68 68 68 67 68 68 68 68 68 68 68 67 67 67 66 65 65 65 64 64 63 63 63 64 64
35 32 39 32 28 29 24 22 21 20 21 22 22 24 25 23 24 20 17 19 22 22 22 28 31 33 38 38 33 32 33 28 20 23 19 18 21 28 23 25 27 32 36 34 36 38 41 46 49 51 52 54 56 57 57 58 60 61 62 63 63 64 65 66 66 67 67 67 67 67 68 68 68 68 67 67 68 68 68 68 69 68 68 67 67 67 67 66 65 65 64 64 64 64 64 64 64
33 34 30 31 31 27 26 24 22 20 19 20 20 21 21 21 22 21 18 18 21 22 23 27 28 31 36 33 32 29 28 28 20 19 17 18 24 27 24 26 29 32 33 35 36 37 39 46 48 49 51 52 54 54 56 57 59 60 61 61 62 63 64 65 66 66 67 67 67 67 67 67 66 67 68 67 67 67 67 67 68 68 67 67 67 67 67 66 65 65 65 65 64 64 64 64 64
29 31 38 30 29 26 26 23 20 19 18 19 18 21 21 22 22 19 20 18 21 21 23 26 23 25 23 28 28 30 34 26 19 17 17 18 21 19 22 27 29 33 33 38 38 37 38 41 47 48 49 50 52 53 54 55 58 59 59 60 61 62 63 64 65 65 66 67 67 67 67 67 66 67 67 68 68 68 67 67 68 68 68 67 67 67 67 66 66 65 65 65 64 64 64 64 64
28 32 35 29 28 25 23 22 19 18 18 18 16 20 22 22 22 19 20 18 21 20 23 27 25 29 20 22 30 28 31 25 21 17 17 21 16 19 28 25 31 33 36 37 37 37 39 41 42 46 48 50 50 51 52 53 56 57 58 59 60 60 61 62 63 64 65 66 67 67 67 67 66 67 67 67 67 68 68 68 67 68 67 67 67 67 67 66 66 65 65 65 65 65 64 64 63
31 34 27 26 24 23 22 21 20 20 18 15 18 21 23 21 20 20 22 20 21 20 22 25 29 31 20 22 24 27 24 25 21 19 19 17 19 19 27 26 33 36 37 37 36 38 40 40 41 42 46 48 48 50 50 52 54 56 56 57 58 59 59 60 61 62 64 65 66 67 67 67 66 65 66 67 66 68 68 68 68 68 67 67 67 66 65 66 66 66 65 65 66 65 64 64 64
30 33 30 26 26 23 23 23 23 15 13 18 21 22 22 22 22 23 21 19 21 22 24 27 28 29 23 23 24 23 23 23 19 20 17 20 25 25 28 30 32 32 35 36 35 37 39 40 40 42 43 44 45 47 49 50 52 54 55 56 57 57 58 58 59 60 62 63 65 66 67 67 66 67 66 66 66 67 67 67 67 68 67 67 67 67 66 67 66 65 66 66 66 65 64 64 63
28 32 28 27 23 23 22 22 21 17 15 20 22 22 22 23 23 24 22 20 21 24 25 28 27 26 20 24 23 24 23 21 19 21 22 25 30 29 33 32 29 32 31 33 33 36 37 39 39 41 43 44 44 45 46 47 51 52 53 54 55 56 56 57 57 59 60 61 62 64 66 67 67 66 66 66 66 66 67 66 66 67 67 67 67 67 67 66 67 65 66 66 65 65 64 64 63
33 31 29 27 23 21 20 17 16 15 12 20 22 23 21 22 24 22 23 23 22 24 25 24 27 23 25 24 23 24 23 19 19 22 24 29 30 29 25 24 24 25 31 32 33 36 37 38 39 40 41 42 43 44 45 46 48 50 52 52 53 54 55 56 56 57 59 59 61 62 65 66 66 66 66 66 65 66 67 66 66 66 68 67 67 66 67 66 67 66 66 66 64 64 64 64 63
30 33 24 23 20 21 22 14 16 10 16 20 22 22 19 20 24 24 26 24 21 22 24 26 26 28 23 23 23 24 21 22 24 24 29 27 22 17 19 20 23 23 29 29 33 34 37 38 39 39 41 42 43 44 45 46 47 49 49 51 52 52 54 54 55 56 58 60 61 63 64 66 65 65 66 66 65 66 64 64 65 65 66 67 67 67 67 66 66 67 66 65 64 64 65 64 63
28 21 17 17 16 14 19 17 15 19 17 20 22 23 21 19 22 23 24 23 23 23 23 25 27 27 24 21 23 21 19 20 23 24 28 27 23 17 15 16 20 21 25 27 31 34 36 37 39 39 41 42 42 45 45 45 47 47 46 47 48 49 51 53 52 54 57 60 60 63 66 66 67 67 65 66 66 65 64 63 64 64 65 66 68 68 66 66 65 66 65 65 64 65 64 62 61
21 18 15 13 15 16 20 18 19 19 19 21 22 23 23 22 24 23 21 20 22 21 23 25 24 24 23 22 21 21 22 24 27 29 29 28 23 20 18 21 22 21 24 26 29 32 35 36 38 38 41 41 42 44 45 44 44 45 45 46 47 49 50 50 51 52 53 56 59 61 65 67 67 67 67 67 66 62 65 62 63 64 64 65 66 67 66 65 65 65 65 64 64 65 63 62 61
15 17 15 19 20 20 21 21 20 22 23 21 22 23 23 23 24 25 22 20 21 21 22 23 23 23 21 22 25 30 30 28 27 28 26 25 23 21 20 23 21 22 26 26 28 34 33 36 37 39 41 41 42 42 44 42 43 44 44 45 45 46 47 48 50 51 52 54 56 58 63 66 65 67 64 65 66 67 66 62 61 62 62 63 64 65 66 65 65 65 65 65 65 63 62 61 60
14 15 15 18 21 19 21 23 22 23 23 22 22 23 22 24 24 25 22 21 20 22 24 24 23 22 21 23 26 25 22 20 21 22 23 24 23 22 19 22 19 24 26 27 27 33 32 35 36 39 40 40 41 41 43 41 43 42 43 43 44 45 46 47 48 49 51 52 54 56 58 65 66 66 65 64 66 67 67 67 66 65 65 65 62 64 66 66 65 65 65 65 65 64 63 61 60
22 22 19 21 22 19 23 23 26 24 23 23 22 20 22 24 25 24 24 20 20 23 24 25 23 21 21 22 22 21 19 17 14 16 20 21 22 20 21 19 23 23 25 24 26 29 32 33 37 38 39 40 41 41 42 42 42 41 42 43 44 45 46 46 47 48 50 52 54 55 57 62 65 66 65 63 64 66 66 66 66 65 65 65 64 64 65 65 65 65 65 66 64 63 63 62 59
16 20 21 22 22 20 23 24 25 23 22 22 22 23 24 23 22 25 24 23 24 26 26 24 21 20 21 21 21 22 21 18 17 16 18 21 21 21 20 20 22 22 24 22 26 29 32 33 36 38 38 39 40 40 42 41 41 41 42 43 43 43 44 45 46 47 48 50 53 55 57 61 65 65 65 66 65 66 66 66 66 64 64 64 64 64 64 65 65 65 65 65 65 64 63 63 62
18 18 22 22 23 22 23 23 27 24 22 22 24 26 22 22 18 24 23 25 26 26 25 21 19 20 20 21 24 22 20 21 20 18 22 21 24 24 25 23 20 23 22 22 25 29 32 33 36 37 37 39 39 41 42 40 40 41 41 43 42 43 44 44 45 46 47 48 52 55 55 58 64 64 64 65 65 66 65 66 66 66 64 64 64 63 64 64 63 65 65 65 64 63 63 63 63
20 20 22 22 22 23 22 22 25 25 23 24 25 24 24 23 22 25 22 24 24 25 26 21 22 24 24 24 23 23 21 20 17 21 23 20 24 27 25 21 20 21 19 23 25 29 31 33 35 37 36 39 39 40 41 40 40 41 41 41 41 44 43 43 44 45 46 47 48 51 54 55 63 66 64 64 64 64 65 65 65 65 64 65 64 64 63 63 64 64 64 64 64 63 63 63 63
21 21 22 22 22 22 23 21 22 24 25 26 22 23 25 25 26 21 22 23 24 25 26 23 23 24 24 24 24 24 21 18 18 16 19 21 25 22 22 16 17 17 21 22 25 27 30 32 32 36 36 37 39 39 40 39 40 40 40 41 41 42 42 42 44 44 45 45 47 49 52 55 61 65 64 64 64 64 64 64 64 65 64 64 64 64 63 62 63 63 64 64 63 63 62 62 62
23 22 20 19 21 21 22 21 21 22 22 26 24 22 24 26 27 14 22 22 25 25 25 24 24 24 24 24 25 23 22 19 17 17 16 16 16 16 18 17 15 18 21 22 24 26 31 31 32 35 36 35 39 39 40 39 40 40 40 40 40 41 41 42 43 44 45 45 45 47 50 54 58 65 64 63 64 64 63 64 64 64 64 64 64 64 64 63 61 62 63 63 63 62 63 61 61
23 21 20 19 19 20 20 19 20 21 20 22 21 22 27 25 22 17 20 22 25 24 24 24 24 24 24 25 25 25 22 19 18 18 13 12 15 16 18 15 17 19 19 21 24 28 30 31 32 34 35 34 36 38 39 39 39 39 40 39 40 40 41 41 42 43 45 45 45 46 49 51 56 60 62 62 62 61 60 59 58 59 59 62 64 64 64 63 63 64 63 62 62 62 60 60 57
22 22 14 17 16 16 19 19 20 21 19 22 21 20 22 21 16 20 21 24 25 25 24 24 24 24 25 26 25 23 21 23 20 15 13 15 17 18 18 19 18 19 18 22 23 28 29 32 33 34 36 34 36 36 37 38 38 39 39 39 39 40 40 41 42 42 43 44 45 46 47 50 54 58 59 58 57 58 57 57 56 56 57 59 60 62 63 63 64 63 63 62 60 59 55 53 50
21 19 17 15 14 14 18 20 19 19 20 22 20 8 4 14 18 20 23 25 25 23 23 23 23 24 24 25 25 24 22 22 18 19 17 16 18 19 20 19 19 17 19 21 23 26 30 33 34 35 36 34 35 35 37 38 38 39 39 38 39 39 40 40 41 42 43 43 44 44 46 49 51 54 57 57 57 56 55 55 55 54 55 56 58 58 59 61 62 62 60 60 55 53 52 50 48
19 16 18 17 16 12 19 20 18 17 20 22 19 9 7 16 17 21 23 27 24 22 22 22 23 24 25 27 26 25 22 23 22 18 19 19 19 18 20 17 15 17 20 20 23 26 27 28 33 34 35 33 34 36 38 39 38 40 40 38 38 39 39 40 40 41 42 43 43 45 45 47 48 50 52 55 55 56 56 54 54 53 54 54 55 56 56 55 56 56 55 52 51 50 49 48 47
21 20 15 18 15 14 17 19 19 17 19 21 17 8 8 12 17 20 23 25 24 22 21 22 23 23 24 25 25 24 22 21 23 19 17 19 22 20 22 18 19 20 18 19 21 26 27 27 29 30 32 34 33 34 37 36 37 40 41 40 39 40 39 39 41 41 41 43 43 43 44 45 46 47 49 52 52 52 52 52 52 52 52 53 53 54 54 54 53 51 51 51 48 47 46 46 46
18 18 18 17 16 14 15 17 18 20 20 22 17 6 10 14 17 20 23 24 27 22 21 22 23 23 24 24 25 25 24 21 20 17 19 18 19 19 21 20 21 21 18 19 21 25 27 28 28 29 29 32 34 34 34 35 36 41 43 43 42 42 41 39 41 42 41 41 43 44 44 45 45 45 47 47 49 48 49 49 50 51 51 52 52 53 53 54 51 49 48 48 47 45 44 44 44
17 19 16 19 14 15 13 16 16 20 19 13 15 9 12 15 18 20 22 24 24 22 21 22 23 23 24 25 23 23 23 24 20 20 21 21 20 22 22 23 21 20 21 20 22 24 26 28 28 27 28 29 32 34 34 33 34 40 43 43 41 41 40 40 40 41 41 41 43 43 43 43 44 44 45 46 47 46 47 47 48 49 50 51 51 51 52 52 52 49 48 48 47 45 44 43 42
17 17 18 15 16 15 14 15 15 18 19 16 14 12 13 16 18 20 21 23 23 22 23 24 23 23 23 22 23 23 24 22 22 24 27 25 25 24 22 21 20 23 20 19 22 24 27 27 27 25 25 28 30 34 34 30 33 40 43 41 40 39 40 41 41 39 40 41 41 41 42 43 44 44 44 44 45 45 45 46 47 48 49 50 50 49 49 49 48 48 46 46 46 45 44 43 42
17 18 17 18 15 14 14 15 16 18 18 13 15 13 13 14 15 16 18 19 22 22 22 24 27 25 23 22 23 23 26 23 26 29 32 30 29 29 24 20 20 22 22 22 24 24 24 26 27 24 25 26 28 31 29 28 30 37 39 39 38 38 39 40 39 38 38 39 39 41 41 42 42 43 43 43 44 43 43 43 44 46 47 49 49 49 48 48 46 45 45 44 42 42 42 42 41
20 21 20 17 16 15 15 16 16 18 19 14 16 15 15 15 14 15 17 19 21 20 21 23 20 24 25 22 22 25 24 23 32 33 32 33 32 28 27 25 22 22 23 23 21 20 21 25 26 24 25 24 25 27 26 27 28 28 36 39 37 38 37 37 38 38 38 38 38 40 40 42 41 42 42 42 43 42 41 42 43 44 45 46 47 46 47 47 47 45 44 43 41 40 40 41 40
18 18 19 16 18 14 14 16 17 18 19 13 16 13 14 13 12 14 16 18 17 19 20 19 19 20 22 23 24 25 24 29 30 26 25 30 30 34 30 26 27 19 20 22 21 22 22 26 25 25 23 24 25 26 25 25 27 26 32 37 39 38 36 37 36 36 37 36 37 37 40 40 41 40 42 42 42 43 41 41 42 43 44 44 45 45 45 46 46 45 44 43 44 41 39 41 41
20 17 18 16 15 18 16 16 17 18 20 15 16 13 12 10 11 13 15 16 19 20 22 22 24 24 22 22 23 25 25 26 26 23 24 24 29 33 30 25 24 23 23 23 25 23 21 22 24 25 23 25 23 25 25 24 26 26 27 29 36 39 39 39 39 37 36 36 36 36 36 39 39 39 40 41 40 41 42 42 41 42 44 45 44 44 44 44 44 44 44 42 41 42 41 42 42
21 19 17 15 17 16 19 16 16 18 18 16 17 16 12 12 12 13 15 16 18 23 24 25 25 23 20 19 21 24 25 26 25 24 23 23 25 25 28 28 25 28 24 23 23 22 21 19 23 26 24 24 23 24 28 26 26 26 26 25 25 28 32 38 40 38 36 32 29 30 33 33 37 38 38 38 41 41 39 42 42 40 38 39 41 42 42 43 42 42 41 40 38 37 40 40 43
22 20 19 16 16 19 19 16 18 18 21 20 17 17 14 14 12 11 12 18 23 23 20 22 23 25 23 25 28 28 22 23 25 25 25 23 23 24 26 27 28 26 24 25 26 24 26 21 23 26 25 25 23 25 26 26 25 26 25 25 24 24 25 22 23 27 31 31 25 25 28 29 30 32 34 33 32 28 29 30 31 31 32 33 36 38 38 40 41 42 42 42 41 38 39 39 39
18 20 19 21 19 17 18 17 21 19 20 18 15 13 15 16 14 12 11 13 12 14 19 15 15 18 20 18 21 22 26 28 27 25 25 26 26 26 27 28 27 28 24 25 27 27 24 20 21 24 24 25 24 25 26 27 23 23 24 20 18 19 17 19 19 20 21 21 21 23 24 25 27 27 27 29 29 28 27 27 28 27 28 29 30 32 34 36 38 40 41 41 40 40 38 36 33
19 16 17 19 18 18 18 21 22 21 16 22 19 13 12 19 14 14 14 15 13 14 16 16 16 19 18 19 19 19 21 22 25 26 26 25 25 25 25 25 27 26 25 28 28 27 25 24 23 25 24 24 29 29 27 25 20 21 24 26 26 23 19 19 22 22 22 22 22 23 23 24 25 26 26 26 27 26 26 27 27 27 26 26 27 26 26 28 30 32 34 37 38 37 36 34 33
19 21 21 19 18 19 18 22 21 20 23 24 20 16 12 12 16 15 18 17 15 15 11 13 18 18 20 19 18 21 21 22 24 25 25 25 25 25 24 26 25 24 25 27 29 29 27 24 23 22 23 23 25 28 27 25 22 20 22 23 21 21 23 22 22 20 22 23 21 22 22 23 24 25 26 26 27 27 26 26 27 27 26 25 25 24 25 24 27 29 29 30 31 32 35 33 31
19 21 23 21 19 20 23 24 22 22 19 16 19 21 16 16 18 16 15 16 16 17 12 13 16 18 20 21 20 21 21 23 23 24 24 24 25 25 25 26 26 27 28 28 28 28 29 29 26 24 20 23 24 27 27 25 24 22 21 18 18 18 22 20 21 21 20 22 22 22 22 22 23 24 25 27 27 27 27 27 28 28 27 25 23 25 26 27 27 27 27 27 28 27 26 25 23
24 24 26 23 24 24 24 19 16 17 16 16 17 18 14 11 16 14 16 15 15 17 12 11 15 17 20 20 22 21 21 23 26 24 25 26 25 26 27 27 27 28 30 29 29 29 29 28 25 22 19 20 25 26 25 26 26 22 20 22 23 18 19 17 19 19 21 22 22 22 21 21 21 22 23 26 27 27 28 28 28 28 27 25 25 26 26 26 26 26 27 26 27 26 24 25 23
26 26 24 25 22 23 23 19 15 18 12 15 15 15 15 11 16 15 17 20 16 15 12 11 16 19 19 21 21 22 19 22 24 25 25 26 27 26 26 27 27 30 33 31 32 30 29 27 25 23 21 19 23 26 27 25 25 25 20 22 24 23 23 23 16 15 18 20 19 20 20 21 21 21 22 23 26 28 27 27 28 27 26 26 25 25 24 24 23 24 24 26 26 26 23 25 24
23 18 17 19 20 15 21 17 14 12 7 15 13 14 13 11 6 16 15 15 14 13 12 9 14 16 18 20 20 20 21 22 24 24 25 26 26 27 28 27 27 29 31 32 34 32 31 28 26 23 23 23 22 25 27 26 24 25 25 25 23 22 23 23 20 18 20 21 21 17 17 18 18 22 22 21 24 28 26 26 27 27 26 25 24 25 25 24 23 24 23 22 23 25 25 23 24
23 20 18 16 10 12 10 12 9 6 7 17 13 13 15 12 9 12 14 14 14 14 12 11 13 14 17 18 20 20 24 24 25 25 26 27 27 27 27 27 28 29 31 31 32 33 31 29 26 23 22 23 22 24 24 25 26 24 22 22 23 22 22 23 21 22 22 18 17 18 18 14 16 18 20 21 25 28 26 26 27 25 24 25 27 25 27 27 25 24 25 26 26 26 23 25 23
20 21 17 15 9 10 8 10 9 8 16 10 14 12 9 8 9 13 12 14 14 12 15 18 17 16 16 18 20 20 24 25 26 27 28 29 28 28 28 28 27 29 29 30 31 31 31 31 29 25 23 24 23 23 24 24 24 24 26 24 22 22 21 22 18 17 20 20 20 18 18 16 17 20 22 22 24 27 25 27 27 27 28 27 28 28 28 28 27 24 26 25 25 23 25 26 25
16 16 17 16 14 14 11 10 9 12 12 13 11 13 14 16 14 16 15 15 16 15 15 18 20 20 21 22 24 22 22 23 26 28 29 28 28 27 28 29 29 30 30 32 32 31 32 31 30 28 26 25 25 22 23 23 23 25 25 25 24 21 21 18 17 20 19 21 20 22 20 19 17 18 20 23 25 26 27 27 27 26 27 27 27 27 29 27 27 24 23 25 23 24 25 24 24
17 19 19 18 16 17 14 13 13 14 12 14 15 11 13 9 17 18 18 17 16 16 16 20 18 19 23 23 22 23 21 23 26 28 28 28 28 29 29 29 29 30 30 32 32 33 34 33 31 29 28 26 26 24 24 22 21 23 26 26 24 24 22 22 20 22 20 22 23 22 21 22 21 21 22 23 24 26 26 26 25 26 26 27 26 26 26 23 26 22 21 22 23 28 26 26 24
20 20 18 19 18 16 13 11 10 14 11 11 19 9 10 12 15 15 17 16 15 15 14 14 16 19 22 22 24 23 23 26 27 28 27 27 27 28 29 29 29 29 30 31 31 32 31 32 32 30 29 28 28 26 25 24 23 23 25 27 26 26 26 25 20 21 23 24 25 23 21 22 25 24 25 25 25 24 24 25 23 23 25 24 24 24 25 26 25 21 21 23 22 24 23 24 23
18 19 16 17 18 18 19 13 11 12 10 15 13 15 12 12 17 16 15 16 15 16 15 13 16 20 18 22 24 24 25 24 25 26 27 28 28 28 29 30 29 28 28 29 30 32 32 32 32 30 29 29 29 27 26 25 24 23 23 26 26 26 26 26 24 22 22 21 23 22 23 23 21 24 25 28 25 24 26 24 23 23 23 24 24 23 23 23 24 20 23 22 23 23 23 21 22
21 17 23 16 17 16 15 14 12 12 12 12 13 10 11 11 12 18 14 15 15 15 19 19 16 17 18 19 20 23 24 25 26 26 27 28 28 28 28 28 28 28 29 29 30 31 33 32 32 30 29 29 29 29 27 26 25 26 27 24 24 26 26 26 26 23 23 23 22 21 22 22 24 24 21 23 24 22 22 23 24 23 23 23 23 23 23 22 23 21 22 20 23 23 21 22 22
23 21 19 21 23 22 16 15 16 14 13 14 19 17 17 12 10 13 14 16 16 15 17 15 15 16 16 17 21 22 25 25 26 26 27 27 27 27 27 28 28 28 28 30 30 32 32 32 32 31 31 30 29 29 28 26 27 26 27 24 25 24 24 27 26 25 22 22 21 22 21 22 22 21 22 25 22 22 22 22 22 22 23 22 22 23 23 22 22 21 22 22 21 23 23 23 23
17 21 18 19 21 19 18 18 17 15 13 12 12 14 21 12 12 14 14 15 16 16 16 18 18 18 19 21 22 23 23 25 26 27 26 26 26 26 27 28 29 29 29 30 31 31 31 32 31 31 31 31 31 31 30 29 28 28 27 26 24 25 25 25 27 27 24 22 22 23 22 21 20 22 22 23 23 21 20 21 21 21 20 21 22 22 22 23 22 22 21 22 23 22 22 21 21
16 16 16 17 21 18 17 17 15 13 14 12 11 14 19 19 16 16 16 17 18 21 21 20 20 18 20 23 23 23 25 24 24 25 25 26 26 27 27 28 30 30 30 29 30 29 29 30 32 32 32 32 31 32 31 31 29 28 27 26 25 25 25 25 26 26 26 24 24 24 23 23 22 21 22 23 21 23 22 21 20 19 20 20 21 20 22 22 21 22 22 27 26 22 21 21 22